Location: CAO
(44.5093°N, 80.3921°W)
Time: 10:16:21
(UTC-05:00)

ARIANE 6 FM1 Upper Stage - Pass Details

Date: 23 January 2026
Orbit: 522 x 609 km, 62.0° (Epoch: 9 February)

Event Time Altitude Azimuth Distance (km) Brightness Sun altitude
Rises 20:36:19 0° 266° (W) 2,694 7.1 -35.1°
Reaches altitude 10° 20:39:13 10° 287° (WNW) 1,790 6.0 -35.6°
Enters shadow 20:39:45 12° 294° (WNW) 1,664 5.7 -35.7°
